Showing default

NUSAT-37 (JOAN CLARKE), 56203

Orbit data source: Space-Track

NUSAT-37 (JOAN CLARKE), 56203 is a payload satellite owned by URUGUS S.A. (AR) in SSO that was launched on Sat, 15 Apr 2023 UTC via an FALCON 9 launch vehicle from the Air Force Western Test Range (AFWTR). Payload-class satellites include a variety of spacecraft equipped with specific instruments for various scientific and technological missions. These include communications satellites like Starlink; space stations such as the ISS; scientific satellites like the Hubble; Earth observation satellites from companies like Planet Labs, Umbra, and HawkEye 360; GPS; miniature CubeSats for education and research; and military/defense satellites.

Loading next visibility...
Identifier
56203, 2023-054AB
Orbit
SSO
Country
Flag of UnknownUnknown / ARGN
Related business
Manufacturer
URUGUS S.A.
Mission
Operational Commercial Imaging
Bus & Motor
NEWSAT V, Unknown motor
Mass
41.5 kg wet, 38.5 kg dry
Launch date (UTC)
2023-04-15 (2 years ago)
Launch vehicle
FALCON 9
Launch site
Air Force Western Test Range (AFWTR)
Object type
Payload
Rocket body
Debris
Shape & HBR
Box, 0.4 m
Radar Cross Section
0.542 m², Medium (>0.1 m² and < 1m²)

Expand to show TLE details & history
Last TLE update: 19 hours ago

TLE from 19 hours ago
0 NUSAT-37 (JOAN CLARKE)
1 56203U 23054AB  25241.26460194  .00030788  00000-0  76893-3 0  9998
2 56203  97.2859 142.1313 0004122 276.6333  83.4444 15.40099789133536
Epoch: 2025-08-29T06:21Z
TLE epoch observation values (Epoch: 2025-08-29T06:21:01.607Z)
Latitude
-0.00004°
Longitude
69.15887°
Altitude
448.615 km
Speed
7.643 km/s
True Right ascension
09h 28m 31s
True Declination
0° 00' 00"
Sunlit
Object was in daylight at epoch
Visualization orbit readout
Latitude
Unknown
Longitude
Unknown
Altitude
Unknown
Speed
Unknown
Apparent Right ascension
Unknown
Apparent Declination
Unknown
Sunlit
N/A
Visualization observer readout
Local Sidereal Time
16:55:18
Azimuth
Unknown
Elevation
Unknown
Doppler factor
Unknown
Orbital elements
Apogee altitude
445.56 km
Perigee altitude
439.937 km
Semi-major axis
6,820.885 km
Eccentricity
0.00041
Inclination
97.2859°
RAAN
142.1313°
Arg. of periapsis
276.6333°
True anomaly
83.49133°
Mean anomaly
83.4444°
Eccentric anomaly
83.46786°
Mean motion
3.85285 °/min
Orbital period
93.44 mins
BSTAR
0.00076893
Loading maneuver chart data...
Computing Atmospheric mass density...
Loading historical data...
Loading historical data...
Loading historical data...
Loading historical data...
Loading historical data...
Loading historical data...
Loading historical data...

Documentation

Showing up to 5 results
|